KE9LZ-9 Weather Reports


time (UTC)temp
F
wind
direction
speed
knots
gust
knots
rain 1hr
in
rain 24hr
in
rain mn
in
humidity
%
barometer
mb
20260504195004 72 259 8.7 19.1 0.00 0.01 0.00 24 993.0
20260504194004 72 249 7.8 22.6 0.00 0.01 0.00 25 992.9
20260504193005 72 265 5.2 20.0 0.00 0.01 0.00 30 992.8
20260504185004 72 263 8.7 20.9 0.00 0.01 0.00 32 992.4
20260504184004 73 305 5.2 25.2 0.00 0.01 0.00 33 992.6
20260504183003 72 273 5.2 13.9 0.00 0.01 0.00 35 992.5
20260504182003 72 259 6.1 19.1 0.00 0.01 0.00 35 992.4
20260504181004 72 282 8.7 21.7 0.00 0.01 0.00 34 992.4
20260504180004 72 258 7.8 19.1 0.00 0.01 0.00 35 992.2
20260504175003 71 261 10.4 19.1 0.00 0.01 0.00 36 992.3
20260504174004 71 263 5.2 18.2 0.00 0.01 0.00 36 992.5
20260504173004 72 259 6.1 20.0 0.00 0.01 0.00 36 992.5
20260504172004 71 282 7.0 17.4 0.00 0.01 0.00 37 992.6
20260504171004 71 259 7.8 17.4 0.00 0.01 0.00 36 992.6
20260504151004 67 250 5.2 14.8 0.00 0.01 0.00 38 992.6
20260504141004 58 255 4.3 8.7 0.00 0.01 0.00 49 994.2
20260504081004 38 59 0.0 1.7 0.00 0.01 0.00 92 1000.1
20260504050004 43 294 0.0 1.7 0.00 0.01 0.00 73 1002.6
20260504045004 44 287 0.0 0.9 0.00 0.01 0.01 69 1002.7
20260504044003 44 12 0.0 1.7 0.00 0.01 0.01 66 1002.6
20260504043004 44 274 0.9 0.9 0.00 0.01 0.01 64 1002.7
20260504042004 44 295 0.0 0.9 0.00 0.01 0.01 62 1002.8
20260504035004 46 294 0.0 0.9 0.00 0.01 0.01 53 1003.2
20260504034004 46 299 0.0 0.9 0.00 0.01 0.01 52 1003.1
20260504033004 47 330 0.0 0.9 0.00 0.01 0.01 50 1003.3
20260504030004 51 316 0.0 0.9 0.00 0.01 0.01 46 1003.3
20260504025004 51 0 0.0 0.9 0.00 0.01 0.01 44 1003.3
20260504024004 53 326 0.0 0.9 0.00 0.01 0.01 43 1003.2
20260504023004 54 330 0.0 0.9 0.00 0.01 0.01 42 1003.2
20260504022004 56 38 0.0 1.7 0.00 0.01 0.01 40 1003.1
20260504021003 57 3 0.9 2.6 0.00 0.01 0.01 40 1003.1
20260504020003 58 353 1.7 2.6 0.00 0.01 0.01 42 1002.9
20260504015003 58 47 0.9 1.7 0.00 0.01 0.01 40 1002.7
20260504014004 60 10 1.7 2.6 0.00 0.01 0.01 38 1002.6
20260504013004 61 21 1.7 5.2 0.00 0.01 0.01 37 1002.5
20260504012004 61 38 1.7 4.3 0.00 0.01 0.01 36 1002.5
20260504011004 63 358 1.7 4.3 0.00 0.01 0.01 32 1002.3
20260504010004 64 353 1.7 6.1 0.00 0.01 0.01 29 1001.9
20260504005004 64 324 1.7 5.2 0.00 0.01 0.01 29 1001.7
20260504004003 65 23 0.9 10.4 0.00 0.01 0.01 29 1001.5
20260504003004 66 346 1.7 10.4 0.00 0.01 0.01 28 1001.4
20260504002004 67 357 4.3 10.4 0.00 0.01 0.01 27 1001.3
20260504000003 69 353 2.6 8.7 0.00 0.01 0.01 28 1001.0
20260503235004 70 311 4.3 13.0 0.00 0.01 0.01 27 1001.0
20260503234004 70 329 2.6 10.4 0.00 0.01 0.01 28 1000.7
20260503233004 71 337 3.5 8.7 0.00 0.01 0.01 28 1000.6
20260503232004 71 326 2.6 7.8 0.00 0.01 0.01 28 1000.5
20260503230004 70 290 6.1 10.4 0.00 0.01 0.01 33 1000.5
20260503224004 66 303 2.6 8.7 0.00 0.01 0.01 43 1000.8
20260503223004 66 238 1.7 4.3 0.00 0.01 0.01 42 1000.5
20260503222004 66 232 1.7 7.8 0.01 0.01 0.01 41 1000.6
20260503221004 67 282 2.6 7.8 0.01 0.01 0.01 41 1000.7
20260503220004 69 288 2.6 13.0 0.01 0.01 0.01 41 1000.7
20260503215004 67 337 4.3 8.7 0.01 0.01 0.01 44 1000.9
20260503214004 64 310 2.6 6.1 0.01 0.01 0.01 51 1001.0
20260503212003 64 237 4.3 10.4 0.00 0.00 0.00 43 1001.3
20260503211004 64 310 4.3 7.0 0.00 0.00 0.00 48 1001.4
20260503210005 64 294 1.7 11.3 0.00 0.00 0.00 51 1001.3
20260503205004 61 262 4.3 17.4 0.00 0.00 0.00 56 1001.7
20260503204005 67 286 6.1 13.0 0.00 0.00 0.00 38 1001.0
20260503203004 68 267 4.3 14.8 0.00 0.00 0.00 37 1001.1
20260503202003 68 248 4.3 13.0 0.00 0.00 0.00 38 1001.1
20260503201003 68 261 7.0 13.0 0.00 0.00 0.00 38 1001.1
20260503200003 68 280 2.6 13.9 0.00 0.00 0.00 38 1001.3